Date,TemperatureHighF,TemperatureAvgF,TemperatureLowF,DewpointHighF,DewpointAvgF,DewpointLowF,HumidityHigh,HumidityAvg,HumidityLow,PressureMaxIn,PressureMinIn,WindSpeedMaxMPH,WindSpeedAvgMPH,GustSpeedMaxMPH,PrecipitationSumIn
2013-1-1,27.0,23.8,17.0,27.0,21.6,11.0,99,91,78,0.00,40.00,9,6,22,0.00
2013-1-2,22.0,15.5,11.0,14.0,10.7,8.0,89,82,71,0.00,40.00,6,3,17,0.00
2013-1-3,25.0,17.2,7.0,18.0,11.8,4.0,90,80,65,0.00,40.00,10,4,20,0.00
2013-1-4,28.0,23.1,21.0,20.0,17.2,15.0,91,78,66,0.00,40.00,12,9,28,0.00
2013-1-5,28.0,23.0,20.0,22.0,18.4,15.0,93,83,73,0.00,40.00,11,6,29,0.00
2013-1-6,34.0,30.2,28.0,29.0,24.4,20.0,95,79,69,0.00,40.00,10,8,21,0.00
2013-1-7,30.0,27.4,23.0,28.0,24.0,20.0,97,87,71,0.00,40.00,8,5,21,0.00
2013-1-8,40.0,31.8,21.0,25.0,21.1,17.0,89,66,43,0.00,40.00,9,6,17,0.12
2013-1-9,42.0,35.9,30.0,36.0,28.3,22.0,87,74,62,0.00,40.00,13,9,24,0.40
2013-1-10,46.0,33.4,26.0,29.0,24.8,22.0,91,71,47,0.00,40.00,9,5,24,0.01
2013-1-11,38.0,33.7,32.0,36.0,29.4,23.0,100,85,68,0.00,40.00,13,10,20,0.35
2013-1-12,52.0,46.9,34.0,52.0,46.9,34.0,100,100,100,0.00,40.00,8,6,16,0.01
2013-1-13,56.0,49.1,42.0,52.0,47.8,42.0,100,95,83,0.00,40.00,8,5,15,0.08
2013-1-14,53.0,36.3,27.0,53.0,31.6,20.0,100,84,62,0.00,40.00,10,5,25,0.20
2013-1-15,31.0,25.6,19.0,23.0,20.1,17.0,96,80,61,0.00,40.00,8,2,14,0.01
2013-1-16,32.0,26.9,24.0,32.0,26.6,21.0,100,98,80,0.00,40.00,10,6,19,0.00
2013-1-17,29.0,26.9,25.0,27.0,24.9,22.0,98,92,84,0.00,40.00,9,6,21,0.00
2013-1-18,26.0,20.0,12.0,22.0,8.1,3.0,93,61,40,0.00,40.00,17,8,27,0.00
2013-1-19,47.0,38.3,26.0,19.0,12.5,5.0,44,34,28,0.00,40.00,17,13,32,0.09
2013-1-20,43.0,29.6,14.0,27.0,14.7,5.0,66,54,34,0.00,40.00,17,11,39,0.04
2013-1-21,19.0,14.6,6.0,14.0,7.6,-2.0,88,74,63,0.00,40.00,7,5,23,0.00
2013-1-22,8.0,3.3,-1.0,-2.0,-6.7,-11.0,79,63,44,0.00,40.00,11,6,25,0.00
2013-1-23,8.0,2.3,-2.0,0.0,-4.4,-7.0,83,73,53,0.00,40.00,8,4,18,0.00
2013-1-24,19.0,7.6,2.0,4.0,-1.9,-7.0,83,66,41,0.00,40.00,7,3,19,0.00
2013-1-25,10.0,6.2,2.0,6.0,1.2,-6.0,87,80,68,0.00,40.00,8,3,15,0.00
2013-1-26,23.0,15.5,9.0,18.0,12.0,6.0,91,86,73,0.00,40.00,5,3,14,0.00
2013-1-27,30.0,20.5,9.0,16.0,11.6,6.0,91,70,48,0.00,40.00,8,3,12,0.15
2013-1-28,44.0,32.3,21.0,44.0,30.9,12.0,100,95,62,0.00,40.00,12,8,24,0.49
2013-1-29,54.0,47.4,44.0,54.0,47.3,44.0,100,100,96,0.00,40.00,9,6,21,0.13
2013-1-30,56.0,51.5,49.0,54.0,50.5,47.0,100,96,89,0.00,40.00,12,9,21,1.14
2013-1-31,50.0,21.4,16.0,50.0,15.5,7.0,100,78,61,0.00,40.00,14,9,32,1.21
2013-2-1,17.0,12.1,7.0,14.0,5.5,0.0,91,75,59,0.00,40.00,12,6,27,0.01
2013-2-2,17.0,11.2,4.0,15.0,6.7,-2.0,92,82,72,0.00,40.00,9,5,20,0.00
2013-2-3,24.0,17.4,13.0,18.0,14.0,9.0,93,87,70,0.00,40.00,8,3,20,0.00
2013-2-4,21.0,15.3,10.0,18.0,10.5,5.0,96,81,53,0.00,40.00,9,5,25,0.00
2013-2-5,25.0,21.6,19.0,25.0,20.0,17.0,98,93,87,0.00,40.00,6,2,12,0.00
2013-2-6,31.0,22.8,14.0,23.0,15.7,7.0,98,76,44,0.00,40.00,6,4,18,0.12
2013-2-7,33.0,23.1,14.0,20.0,13.8,7.0,77,68,52,0.00,40.00,14,7,22,0.03
2013-2-8,32.0,25.9,15.0,32.0,24.4,12.0,100,94,76,0.00,40.00,15,10,22,0.01
2013-2-9,30.0,18.6,12.0,17.0,10.9,8.0,89,73,47,0.00,40.00,8,6,23,0.11
2013-2-10,39.0,26.5,13.0,16.0,12.7,7.0,84,58,35,0.00,40.00,14,7,21,0.03
2013-2-11,54.0,36.3,29.0,44.0,27.8,15.0,100,74,41,0.00,40.00,17,9,33,0.12
2013-2-12,31.0,27.1,20.0,21.0,19.8,18.0,92,74,65,0.00,40.00,13,8,34,0.03
2013-2-13,39.0,27.8,20.0,30.0,22.9,18.0,100,84,54,0.00,40.00,7,4,12,0.00
2013-2-14,35.0,28.7,22.0,31.0,26.1,21.0,99,90,74,0.00,40.00,10,6,18,0.07
2013-2-15,36.0,31.1,25.0,31.0,24.2,20.0,99,76,58,0.00,40.00,12,7,20,0.03
2013-2-16,30.0,22.3,13.0,20.0,9.8,1.0,81,60,36,0.00,40.00,6,4,16,0.02
2013-2-17,22.0,13.1,8.0,9.0,3.6,1.0,86,66,41,0.00,40.00,11,6,26,0.00
2013-2-18,34.0,20.0,4.0,11.0,5.9,0.0,84,58,30,0.00,40.00,10,6,16,0.00
2013-2-19,34.0,29.0,20.0,34.0,22.7,11.0,100,80,47,0.00,40.00,14,9,29,0.19
2013-2-20,20.0,14.8,11.0,16.0,6.4,2.0,83,69,52,0.00,40.00,10,8,30,0.01
2013-2-21,30.0,17.0,13.0,14.0,9.7,7.0,88,74,48,0.00,40.00,9,6,21,0.01
2013-2-22,24.0,19.8,14.0,24.0,17.6,10.0,98,90,72,0.00,40.00,14,10,25,0.01
2013-2-23,36.0,28.6,24.0,36.0,28.6,24.0,100,99,98,0.00,40.00,8,4,14,0.13
2013-2-24,29.0,25.8,23.0,29.0,21.6,16.0,100,85,59,0.00,40.00,7,5,18,0.01
2013-2-25,44.0,29.7,18.0,23.0,17.8,15.0,95,64,35,0.00,40.00,7,4,12,0.03
2013-2-26,34.0,28.8,25.0,31.0,23.5,17.0,100,81,61,0.00,40.00,17,12,31,0.01
2013-2-27,36.0,32.0,29.0,36.0,32.0,29.0,100,100,100,0.00,40.00,9,6,21,0.23
2013-2-28,33.0,29.7,28.0,32.0,28.1,26.0,100,94,82,0.00,40.00,9,6,18,0.15
2013-3-1,31.0,26.8,21.0,28.0,22.8,18.0,99,85,70,0.00,40.00,6,5,17,0.02
2013-3-2,29.0,21.7,18.0,19.0,16.7,15.0,92,81,60,0.00,40.00,7,4,14,0.01
2013-3-3,25.0,20.2,17.0,18.0,16.0,13.0,94,84,71,0.00,40.00,8,6,19,0.01
2013-3-4,27.0,19.3,15.0,17.0,14.1,12.0,91,80,59,0.00,40.00,8,6,22,0.00
2013-3-5,39.0,26.2,14.0,21.0,18.0,12.0,94,74,47,0.00,40.00,11,6,24,0.34
2013-3-6,38.0,32.0,28.0,26.0,22.7,20.0,79,69,54,0.00,40.00,12,8,24,0.07
2013-3-7,38.0,32.4,29.0,28.0,26.0,23.0,94,78,59,0.00,40.00,7,4,19,0.13
2013-3-8,42.0,31.8,26.0,28.0,20.9,18.0,98,66,39,0.00,40.00,11,7,22,0.06
2013-3-9,55.0,38.0,22.0,27.0,19.8,15.0,91,54,22,0.00,40.00,8,4,11,0.01
2013-3-10,59.0,46.7,36.0,24.0,19.5,15.0,41,34,24,0.00,40.00,12,9,20,0.00
2013-3-11,51.0,45.9,42.0,47.0,26.4,19.0,100,48,38,0.00,40.00,14,10,24,0.06
2013-3-12,47.0,36.9,31.0,47.0,34.8,26.0,100,92,80,0.00,40.00,11,6,22,0.59
2013-3-13,32.0,27.4,21.0,28.0,21.6,11.0,94,79,60,0.00,40.00,10,6,27,0.03
2013-3-14,31.0,23.5,19.0,18.0,12.1,8.0,87,63,40,0.00,40.00,10,8,26,0.01
2013-3-15,38.0,28.8,19.0,29.0,21.3,13.0,95,74,62,0.00,40.00,12,7,23,0.00
2013-3-16,29.0,27.8,27.0,29.0,27.4,26.0,99,98,94,0.00,40.00,8,4,16,0.00
2013-3-17,31.0,25.0,20.0,27.0,19.2,13.0,99,79,59,0.00,40.00,6,3,15,0.20
2013-3-18,27.0,22.2,19.0,27.0,18.6,13.0,99,86,69,0.00,40.00,16,12,28,0.02
2013-3-19,40.0,29.7,22.0,31.0,24.6,15.0,100,83,53,0.00,40.00,11,8,26,0.34
2013-3-20,33.0,25.6,20.0,20.0,14.8,12.0,93,64,45,0.00,40.00,11,7,27,0.02
2013-3-21,24.0,19.2,15.0,17.0,11.7,4.0,90,73,49,0.00,40.00,9,6,20,0.01
2013-3-22,27.0,22.9,20.0,22.0,18.8,17.0,94,84,68,0.00,40.00,9,6,19,0.01
2013-3-23,32.0,26.1,21.0,20.0,17.9,14.0,89,72,54,0.00,40.00,8,5,18,0.06
2013-3-24,42.0,29.5,18.0,20.0,16.8,14.0,95,62,36,0.00,40.00,11,5,19,0.01
2013-3-25,33.0,29.6,27.0,30.0,26.5,17.0,100,89,54,0.00,40.00,11,7,19,0.22
2013-3-26,44.0,32.1,26.0,31.0,27.2,24.0,100,83,52,0.00,40.00,8,5,17,0.11
2013-3-27,38.0,31.5,28.0,28.0,24.7,20.0,89,77,55,0.00,40.00,9,6,19,0.01
2013-3-28,38.0,33.6,31.0,31.0,27.5,24.0,92,79,62,0.00,40.00,6,5,13,0.03
2013-3-29,46.0,36.3,30.0,30.0,25.2,18.0,94,68,36,0.00,40.00,8,5,19,0.01
2013-3-30,51.0,39.3,27.0,21.0,17.3,13.0,70,44,23,0.00,40.00,6,3,15,0.00
2013-3-31,43.0,39.0,36.0,42.0,27.5,-99.9,100,71,37,0.00,40.00,9,6,20,0.30
2013-4-1,41.0,35.9,24.0,40.0,24.0,3.0,98,67,25,0.00,40.00,12,8,23,0.11
2013-4-2,31.0,25.3,18.0,15.0,9.8,6.0,76,52,37,0.00,40.00,10,6,23,0.01
2013-4-3,34.0,25.8,20.0,18.0,10.2,2.0,79,53,30,0.00,40.00,9,6,21,0.00
2013-4-4,49.0,31.7,14.0,12.0,6.2,-1.0,75,41,13,0.00,40.00,11,6,17,0.00
2013-4-5,51.0,39.5,28.0,22.0,14.3,6.0,59,36,23,0.00,40.00,9,6,24,0.00
2013-4-6,50.0,36.1,21.0,19.0,12.5,3.0,79,44,15,0.00,40.00,11,6,18,0.00
2013-4-7,67.0,51.7,38.0,42.0,27.9,13.0,66,40,31,0.00,40.00,14,10,31,0.00
2013-4-8,68.0,56.8,40.0,44.0,39.3,36.0,94,56,34,0.00,40.00,13,6,22,0.00
2013-4-9,74.0,63.1,51.0,50.0,45.8,40.0,90,56,34,0.00,40.00,11,7,22,0.02
2013-4-10,74.0,64.6,56.0,60.0,54.1,49.0,100,71,52,0.00,40.00,11,8,37,1.49
2013-4-11,57.0,49.2,38.0,57.0,49.1,38.0,100,100,95,0.00,40.00,12,6,22,1.40
2013-4-12,59.0,45.9,38.0,57.0,43.5,29.0,100,92,69,0.00,40.00,14,10,24,0.59
2013-4-13,42.0,37.9,35.0,32.0,30.1,28.0,87,74,60,0.00,40.00,10,7,19,0.03
2013-4-14,52.0,41.0,29.0,29.0,26.8,23.0,82,59,39,0.00,40.00,9,5,21,0.00
2013-4-15,63.0,52.2,44.0,46.0,37.0,28.0,73,57,46,0.00,40.00,14,10,26,0.00
2013-4-16,70.0,57.5,51.0,56.0,51.4,45.0,99,82,55,0.00,40.00,12,8,24,0.06
2013-4-17,70.0,56.4,45.0,53.0,39.3,30.0,100,60,26,0.00,40.00,9,5,15,0.07
2013-4-18,60.0,56.5,53.0,58.0,47.8,30.0,98,75,40,0.00,40.00,13,10,24,0.00
2013-4-19,67.0,56.4,40.0,60.0,50.5,31.0,95,81,69,0.00,40.00,16,10,26,0.27
2013-4-20,41.0,35.4,27.0,32.0,24.0,16.0,85,64,49,0.00,40.00,13,8,28,0.11
2013-4-21,49.0,34.6,20.0,21.0,15.8,12.0,87,50,25,0.00,40.00,8,4,21,0.00
2013-4-22,54.0,42.6,33.0,25.0,19.9,16.0,59,42,24,0.00,40.00,13,10,23,0.00
2013-4-23,63.0,46.9,31.0,34.0,29.2,25.0,83,54,24,0.00,40.00,11,8,18,0.00
2013-4-24,63.0,47.4,33.0,53.0,40.5,32.0,96,78,56,0.00,40.00,14,8,36,0.38
2013-4-25,54.0,41.7,32.0,35.0,27.1,19.0,97,62,28,0.00,40.00,10,6,21,0.05
2013-4-26,57.0,43.7,31.0,38.0,24.0,13.0,100,56,18,0.00,40.00,7,3,16,0.02
2013-4-27,69.0,53.6,38.0,29.0,22.6,17.0,46,31,20,0.00,40.00,7,4,18,0.00
2013-4-28,58.0,49.7,44.0,47.0,37.2,-99.9,100,69,38,0.00,40.00,13,9,25,0.35
2013-4-29,53.0,47.4,44.0,51.0,45.9,42.0,100,95,88,0.00,40.00,10,9,17,0.35
2013-4-30,57.0,54.0,50.0,51.0,50.0,49.0,100,87,80,0.00,40.00,11,9,20,0.02
2013-5-1,70.0,57.9,47.0,49.0,36.1,22.0,100,55,21,0.00,40.00,10,8,21,0.00
2013-5-2,71.0,59.2,44.0,39.0,28.8,18.0,71,36,13,0.00,40.00,13,9,21,0.00
2013-5-3,68.0,56.9,48.0,40.0,35.6,33.0,65,47,30,0.00,40.00,12,8,21,0.00
2013-5-4,68.0,55.3,42.0,40.0,36.8,34.0,82,53,32,0.00,40.00,12,8,21,0.00
2013-5-5,70.0,55.8,45.0,41.0,29.3,11.0,75,43,11,0.00,40.00,13,9,25,0.00
2013-5-6,66.0,53.8,42.0,49.0,39.9,28.0,78,60,41,0.00,40.00,10,9,21,0.00
2013-5-7,71.0,58.3,51.0,55.0,48.5,40.0,96,73,41,0.00,40.00,11,7,22,0.00
2013-5-8,64.0,56.9,53.0,57.0,52.7,50.0,100,86,64,0.00,40.00,8,6,21,0.25
2013-5-9,63.0,55.2,50.0,60.0,52.7,45.0,100,92,67,0.00,40.00,6,3,13,0.51
2013-5-10,70.0,59.0,53.0,59.0,49.9,-99.9,100,77,59,0.00,40.00,9,6,21,0.30
2013-5-11,57.0,53.7,47.0,57.0,51.6,45.0,100,93,77,0.00,40.00,11,6,21,0.33
2013-5-12,46.0,40.9,34.0,45.0,29.8,-99.9,98,70,39,0.00,40.00,12,7,26,0.02
2013-5-13,44.0,35.8,29.0,31.0,24.4,18.0,97,67,39,0.00,40.00,8,5,21,0.03
2013-5-14,51.0,39.1,27.0,39.0,25.3,18.0,93,61,31,0.00,40.00,7,4,16,0.03
2013-5-15,78.0,57.6,41.0,58.0,45.5,36.0,90,66,43,0.00,40.00,15,8,29,0.10
2013-5-16,78.0,57.4,56.0,55.0,20.1,-99.9,70,45,19,0.00,40.00,9,4,21,0.05
2013-5-17,76.0,61.1,48.0,38.0,24.0,-99.9,51,35,23,0.00,40.00,7,4,19,0.00
2013-5-18,71.0,59.7,52.0,54.0,43.8,35.0,90,56,41,0.00,40.00,10,8,19,0.00
2013-5-19,64.0,57.6,53.0,58.0,55.8,53.0,100,94,79,0.00,40.00,10,8,19,0.00
2013-5-20,82.0,67.5,57.0,63.0,60.3,57.0,100,80,49,0.00,40.00,8,6,15,0.00
2013-5-21,85.0,73.9,64.0,68.0,62.4,58.0,100,71,43,0.00,40.00,12,7,19,0.00
2013-5-22,85.0,72.1,63.0,62.0,57.8,53.0,83,63,34,0.00,40.00,14,8,36,0.01
2013-5-23,72.0,62.1,55.0,63.0,57.6,50.0,100,86,57,0.00,40.00,12,7,21,0.20
2013-5-24,55.0,42.0,37.0,55.0,37.4,30.0,100,84,65,0.00,40.00,10,7,24,0.05
2013-5-25,57.0,44.6,34.0,35.0,30.3,23.0,99,64,28,0.00,40.00,9,7,23,0.01
2013-5-26,64.0,49.0,34.0,37.0,29.8,22.0,95,54,21,0.00,40.00,9,5,20,0.00
2013-5-27,68.0,54.1,39.0,36.0,30.8,25.0,64,43,24,0.00,40.00,8,4,15,0.00
2013-5-28,70.0,57.0,48.0,65.0,53.6,34.0,100,90,46,0.00,40.00,8,6,15,0.58
2013-5-29,82.0,71.5,61.0,63.0,59.3,56.0,100,68,45,0.00,40.00,10,8,22,0.04
2013-5-30,83.0,74.3,66.0,65.0,59.0,55.0,83,60,42,0.00,40.00,8,5,15,0.00
2013-5-31,85.0,75.9,67.0,63.0,58.9,54.0,83,58,35,0.00,40.00,9,6,17,0.00
2013-6-1,82.0,73.6,62.0,63.0,59.8,56.0,93,64,45,0.00,40.00,12,8,25,0.00
2013-6-2,77.0,70.0,61.0,65.0,57.7,-99.9,94,70,48,0.00,40.00,13,8,29,0.01
2013-6-3,68.0,60.0,48.0,55.0,48.2,34.0,99,68,35,0.00,40.00,8,4,19,0.01
2013-6-4,71.0,55.1,40.0,42.0,38.5,34.0,90,58,30,0.00,40.00,8,4,16,0.00
2013-6-5,74.0,61.2,49.0,51.0,41.7,34.0,68,50,37,0.00,40.00,9,6,16,0.00
2013-6-6,61.0,56.9,53.0,57.0,54.0,50.0,100,91,68,0.00,40.00,10,8,19,1.35
2013-6-7,62.0,59.3,56.0,62.0,59.3,56.0,100,100,100,0.00,40.00,5,4,11,0.63
2013-6-8,65.0,57.0,53.0,58.0,54.0,52.0,100,91,64,0.00,40.00,6,4,13,0.03
2013-6-9,77.0,64.1,51.0,59.0,53.3,49.0,100,72,37,0.00,40.00,8,4,12,0.01
2013-6-10,66.0,63.6,61.0,66.0,62.5,58.0,100,96,81,0.00,40.00,8,6,17,0.80
2013-6-11,66.0,62.4,60.0,63.0,60.7,59.0,100,95,83,0.00,40.00,9,7,20,0.20
2013-6-12,75.0,65.9,58.0,63.0,60.4,58.0,100,84,58,0.00,40.00,6,3,13,0.01
2013-6-13,65.0,61.2,55.0,64.0,60.0,52.0,100,96,87,0.00,40.00,12,7,26,0.31
2013-6-14,71.0,60.3,51.0,56.0,50.8,46.0,100,74,45,0.00,40.00,8,5,18,0.01
2013-6-15,73.0,61.6,50.0,57.0,48.9,41.0,100,69,35,0.00,40.00,7,4,15,0.00
2013-6-16,71.0,63.7,58.0,66.0,55.7,42.0,99,77,47,0.00,40.00,13,7,32,0.24
2013-6-17,78.0,68.0,61.0,64.0,58.9,51.0,100,76,39,0.00,40.00,7,5,17,0.25
2013-6-18,74.0,65.9,57.0,61.0,55.3,51.0,87,69,55,0.00,40.00,8,4,15,0.01
2013-6-19,72.0,60.2,49.0,53.0,43.9,40.0,91,59,32,0.00,40.00,7,4,14,0.00
2013-6-20,78.0,62.3,51.0,56.0,48.2,41.0,83,62,39,0.00,40.00,7,5,15,0.00
2013-6-22,82.0,77.9,71.0,64.0,61.8,60.0,75,58,51,0.00,40.00,8,6,15,0.00
2013-6-23,86.0,75.8,65.0,68.0,63.4,59.0,95,68,44,0.00,40.00,9,6,19,0.00
2013-6-24,85.0,76.1,69.0,64.0,61.2,58.0,81,62,42,0.00,40.00,8,5,20,0.00
2013-6-25,79.0,70.5,63.0,74.0,65.5,62.0,99,85,67,0.00,40.00,9,6,28,0.80
2013-6-26,76.0,67.6,62.0,66.0,63.0,60.0,100,86,64,0.00,40.00,9,5,20,0.51
2013-6-27,67.0,65.1,62.0,67.0,65.0,62.0,100,100,95,0.00,40.00,10,4,19,2.82
2013-6-28,76.0,63.7,58.0,68.0,61.8,58.0,100,95,66,0.00,40.00,7,4,15,1.86
2013-6-29,75.0,64.7,58.0,64.0,59.6,55.0,100,86,55,0.00,40.00,9,5,19,0.43
2013-6-30,80.0,66.6,57.0,67.0,62.2,57.0,100,87,57,0.00,40.00,6,3,11,0.86
2013-7-1,69.0,64.1,61.0,66.0,63.3,61.0,100,97,86,0.00,40.00,6,4,13,1.47
2013-7-2,80.0,69.2,64.0,74.0,67.7,64.0,100,96,69,0.00,40.00,7,4,13,0.31
2013-7-3,81.0,71.9,65.0,70.0,67.5,65.0,100,88,63,0.00,40.00,7,5,15,0.03
2013-7-4,81.0,72.8,66.0,69.0,67.3,65.0,100,85,58,0.00,40.00,8,5,14,0.02
2013-7-5,82.0,73.8,66.0,69.0,66.6,64.0,100,80,55,0.00,40.00,9,6,17,0.01
2013-7-6,84.0,72.4,66.0,70.0,66.9,63.0,100,84,51,0.00,40.00,8,4,15,0.31
2013-7-7,77.0,70.6,66.0,69.0,66.8,62.0,100,89,64,0.00,40.00,7,5,14,0.31
2013-7-8,78.0,68.2,64.0,69.0,62.3,-99.9,100,86,64,0.00,40.00,7,5,16,0.04
2013-7-9,78.0,69.4,65.0,71.0,67.3,64.0,100,94,78,0.00,40.00,7,4,14,0.02
2013-7-10,78.0,67.9,61.0,72.0,62.7,-99.9,100,89,72,0.00,40.00,9,7,26,0.90
2013-7-11,75.0,65.5,58.0,63.0,57.7,51.0,100,79,46,0.00,40.00,6,4,20,0.62
2013-7-12,71.0,63.3,58.0,60.0,57.0,53.0,90,80,64,0.00,40.00,8,5,17,0.00
2013-7-13,76.0,67.1,61.0,67.0,62.3,57.0,97,85,67,0.00,40.00,8,5,13,0.00
2013-7-14,84.0,74.3,66.0,70.0,66.5,64.0,100,79,55,0.00,40.00,8,6,15,0.00
2013-7-15,86.0,75.8,68.0,70.0,66.3,62.0,90,74,54,0.00,40.00,7,4,15,0.00
2013-7-16,88.0,80.5,71.0,71.0,67.9,61.0,91,68,45,0.00,40.00,5,2,11,0.00
2013-7-17,88.0,75.2,67.0,71.0,68.4,66.0,100,82,50,0.00,40.00,5,2,17,0.00
2013-7-18,88.0,78.7,71.0,74.0,70.6,68.0,100,78,57,0.00,40.00,7,4,14,0.00
2013-7-19,86.0,78.2,71.0,72.0,69.3,66.0,95,75,53,0.00,40.00,11,7,21,0.00
2013-7-20,80.0,70.9,67.0,70.0,64.3,-99.9,99,83,58,0.00,40.00,12,7,26,0.55
2013-7-21,81.0,71.6,63.0,68.0,64.1,59.0,100,80,47,0.00,40.00,5,2,8,0.02
2013-7-22,78.0,68.7,63.0,70.0,66.4,63.0,100,93,70,0.00,40.00,7,3,11,0.60
2013-7-23,78.0,68.0,60.0,68.0,63.8,59.0,100,88,58,0.00,40.00,7,4,14,0.94
2013-7-24,69.0,61.3,54.0,62.0,54.2,49.0,100,80,53,0.00,40.00,8,5,17,0.39
2013-7-25,72.0,58.9,46.0,50.0,47.4,44.0,93,68,41,0.00,40.00,7,5,13,0.00
2013-7-26,77.0,64.9,51.0,55.0,50.9,45.0,90,63,42,0.00,40.00,5,3,10,0.00
2013-7-27,68.0,62.6,55.0,66.0,59.9,53.0,100,91,77,0.00,40.00,6,4,14,0.45
2013-7-28,72.0,64.7,58.0,64.0,58.2,52.0,100,81,55,0.00,40.00,9,5,18,0.26
2013-7-29,67.0,59.2,52.0,53.0,50.1,47.0,98,74,50,0.00,40.00,8,4,16,0.01
2013-7-30,72.0,61.0,50.0,55.0,51.7,48.0,98,74,51,0.00,40.00,5,3,11,0.00
2013-7-31,75.0,65.5,55.0,61.0,55.8,52.0,94,73,48,0.00,40.00,6,3,13,0.00
2013-8-1,76.0,66.3,57.0,67.0,59.5,55.0,100,80,53,0.00,40.00,7,4,14,0.05
2013-8-2,71.0,62.5,53.0,63.0,54.7,50.0,100,78,54,0.00,40.00,9,4,18,0.01
2013-8-3,76.0,65.5,57.0,66.0,57.7,48.0,100,78,48,0.00,40.00,11,5,22,0.52
2013-8-4,71.0,59.6,51.0,55.0,50.6,47.0,97,74,48,0.00,40.00,7,4,16,0.01
2013-8-5,70.0,59.1,47.0,52.0,49.3,46.0,100,73,45,0.00,40.00,5,3,10,0.00
2013-8-6,76.0,62.3,52.0,58.0,53.4,47.0,97,74,50,0.00,40.00,7,4,16,0.00
2013-8-7,72.0,63.3,59.0,68.0,62.1,58.0,100,96,82,0.00,40.00,7,6,17,0.32
2013-8-8,80.0,68.8,61.0,71.0,66.1,61.0,100,92,71,0.00,40.00,8,5,14,0.33
2013-8-9,77.0,68.9,62.0,71.0,67.1,60.0,100,94,75,0.00,40.00,5,4,13,0.77
2013-8-10,75.0,65.5,57.0,61.0,56.5,51.0,97,74,54,0.00,40.00,6,3,14,0.18
2013-8-11,76.0,65.1,56.0,60.0,54.1,49.0,89,69,48,0.00,40.00,4,2,12,0.01
2013-8-12,76.0,66.3,58.0,63.0,56.5,50.0,97,72,56,0.00,40.00,6,3,14,0.01
2013-8-13,74.0,62.8,51.0,64.0,55.7,-99.9,100,82,58,0.00,40.00,7,4,26,0.37
2013-8-14,66.0,53.7,46.0,51.0,46.6,44.0,98,79,49,0.00,40.00,7,4,16,0.01
2013-8-15,69.0,52.0,44.0,49.0,34.2,-99.9,99,66,37,0.00,40.00,6,2,11,0.00
2013-8-16,74.0,60.8,50.0,51.0,42.7,-99.9,88,59,40,0.00,40.00,5,3,11,0.00
2013-8-17,73.0,62.6,53.0,55.0,50.8,47.0,87,67,45,0.00,40.00,7,4,15,0.00
2013-8-18,68.0,60.6,58.0,57.0,52.0,-99.9,91,76,64,0.00,40.00,8,4,14,0.00
2013-8-19,76.0,60.5,58.0,65.0,50.8,-99.9,100,85,61,0.00,40.00,5,2,10,0.23
2013-8-20,78.0,65.9,57.0,65.0,56.6,-99.9,100,78,49,0.00,40.00,5,2,10,0.01
2013-8-21,81.0,70.0,59.0,62.0,58.1,55.0,89,68,45,0.00,40.00,6,3,11,0.00
2013-8-22,78.0,69.6,63.0,69.0,64.2,58.0,100,84,62,0.00,40.00,8,5,16,0.28
2013-8-23,74.0,65.6,60.0,63.0,57.5,49.0,100,78,45,0.00,40.00,6,2,12,0.27
2013-8-24,76.0,63.6,52.0,56.0,50.1,44.0,94,65,38,0.00,40.00,6,4,11,0.00
2013-8-25,78.0,65.5,56.0,58.0,50.8,-99.9,80,63,43,0.00,40.00,7,5,13,0.00
2013-8-26,79.0,69.5,63.0,64.0,59.3,55.0,94,71,56,0.00,40.00,8,6,19,0.04
2013-8-27,82.0,69.9,65.0,69.0,65.9,63.0,100,89,60,0.00,40.00,6,4,16,0.04
2013-8-28,76.0,73.0,67.0,71.0,67.5,65.0,98,84,69,0.00,40.00,7,4,12,0.10
2013-8-29,84.0,72.1,65.0,69.0,64.6,59.0,100,80,47,0.00,40.00,6,3,11,0.01
2013-8-30,82.0,72.1,61.0,67.0,63.4,60.0,100,76,52,0.00,40.00,8,5,14,0.00
2013-8-31,83.0,72.8,67.0,68.0,66.9,65.0,99,83,61,0.00,40.00,9,6,16,0.09
2013-9-1,79.0,70.5,66.0,70.0,65.3,-99.9,100,87,67,0.00,40.00,7,4,14,0.14
2013-9-2,76.0,69.0,64.0,68.0,65.4,58.0,100,89,66,0.00,40.00,7,5,15,0.49
2013-9-3,64.0,58.9,56.0,64.0,55.7,52.0,100,90,69,0.00,40.00,7,4,18,0.20
2013-9-4,72.0,61.2,53.0,56.0,54.0,52.0,100,80,51,0.00,40.00,7,5,15,0.01
2013-9-5,69.0,61.3,49.0,57.0,47.5,40.0,93,64,39,0.00,40.00,8,6,19,0.00
2013-9-6,69.0,53.9,39.0,40.0,35.7,32.0,88,55,28,0.00,40.00,5,3,10,0.00
2013-9-7,74.0,63.3,50.0,52.0,42.7,34.0,64,48,32,0.00,40.00,7,4,13,0.00
2013-9-8,71.0,62.0,54.0,62.0,53.7,-99.9,90,77,56,0.00,40.00,7,5,15,0.00
2013-9-9,69.0,56.7,46.0,58.0,48.3,41.0,94,74,55,0.00,40.00,9,6,16,0.02
2013-9-10,86.0,73.9,59.0,71.0,66.8,57.0,98,80,59,0.00,40.00,10,7,18,0.03
2013-9-11,86.0,75.4,69.0,73.0,69.6,65.0,95,83,61,0.00,40.00,8,6,16,0.01
2013-9-12,74.0,67.3,58.0,69.0,65.3,57.0,100,93,78,0.00,40.00,8,6,30,0.48
2013-9-13,59.0,54.5,46.0,57.0,48.6,40.0,100,82,61,0.00,40.00,8,5,18,0.02
2013-9-14,62.0,49.4,44.0,43.0,40.6,35.0,97,74,42,0.00,40.00,6,3,13,0.01
2013-9-15,66.0,51.9,41.0,50.0,37.6,-99.9,85,62,40,0.00,40.00,7,2,15,0.00
2013-9-16,63.0,54.9,45.0,53.0,49.0,44.0,99,81,55,0.00,40.00,7,3,15,0.08
2013-9-17,62.0,48.3,37.0,44.0,35.5,30.0,96,66,30,0.00,40.00,7,5,12,0.04
2013-9-18,50.0,42.0,40.0,36.0,35.0,33.0,85,77,60,0.00,40.00,6,4,9,0.00
2013-9-19,71.0,58.5,48.0,59.0,51.4,42.0,96,78,56,0.00,40.00,8,4,14,0.00
2013-9-20,77.0,63.8,53.0,62.0,57.5,53.0,100,82,58,0.00,40.00,9,6,15,0.01
2013-9-21,63.0,59.2,54.0,62.0,58.2,54.0,100,96,85,0.00,40.00,7,5,15,0.65
2013-9-22,56.0,49.8,46.0,54.0,43.0,-99.9,99,82,59,0.00,40.00,7,4,15,0.09
2013-9-23,59.0,47.5,41.0,42.0,39.6,36.0,96,76,49,0.00,40.00,5,3,14,0.01
2013-9-24,69.0,52.3,37.0,43.0,38.8,33.0,97,66,29,0.00,40.00,5,2,9,0.00
2013-9-25,70.0,56.8,47.0,46.0,40.5,37.0,84,58,33,0.00,40.00,5,3,9,0.00
2013-9-26,71.0,60.5,45.0,49.0,45.5,40.0,91,61,33,0.00,40.00,5,4,10,0.00
2013-9-27,70.0,58.0,48.0,53.0,46.8,43.0,92,68,42,0.00,40.00,6,4,14,0.00
2013-9-28,63.0,54.0,47.0,52.0,47.4,45.0,96,79,57,0.00,40.00,7,4,14,0.00
2013-9-29,70.0,54.7,45.0,50.0,45.1,-99.9,98,75,45,0.00,40.00,8,5,14,0.00
2013-9-30,71.0,59.3,48.0,57.0,50.9,45.0,93,75,53,0.00,40.00,7,4,14,0.00
2013-10-1,61.0,58.3,57.0,57.0,53.7,52.0,93,84,80,0.00,40.00,5,3,9,0.00
2013-10-2,74.0,63.4,57.0,62.0,58.0,55.0,97,83,66,0.00,40.00,7,5,15,0.00
2013-10-3,74.0,63.7,54.0,64.0,57.3,49.0,96,80,65,0.00,40.00,7,4,14,0.10
2013-10-4,77.0,66.1,61.0,65.0,61.9,58.0,99,87,59,0.00,40.00,8,4,16,0.11
2013-10-5,76.0,66.0,59.0,66.0,63.0,59.0,100,91,68,0.00,40.00,7,3,14,0.17
2013-10-6,81.0,69.7,62.0,66.0,60.7,54.0,100,77,45,0.00,40.00,9,6,20,0.05
2013-10-7,68.0,55.9,45.0,60.0,49.4,38.0,97,79,59,0.00,40.00,10,8,25,0.63
2013-10-8,64.0,51.2,42.0,50.0,39.5,32.0,100,69,34,0.00,40.00,8,4,14,0.04
2013-10-9,61.0,51.9,43.0,39.0,34.3,29.0,79,54,29,0.00,40.00,8,5,16,0.00
2013-10-10,62.0,50.3,45.0,45.0,37.0,31.0,89,63,34,0.00,40.00,7,5,12,0.10
2013-10-11,60.0,50.6,45.0,54.0,44.0,37.0,97,79,51,0.00,40.00,9,6,16,0.54
2013-10-12,69.0,60.5,53.0,51.0,46.2,37.0,86,60,49,0.00,40.00,8,6,15,0.03
2013-10-13,57.0,53.6,52.0,54.0,47.3,-99.9,98,83,54,0.00,40.00,8,6,15,0.01
2013-10-14,57.0,53.3,51.0,55.0,52.4,51.0,100,97,89,0.00,40.00,7,3,14,0.01
2013-10-15,65.0,56.3,51.0,54.0,51.7,47.0,100,85,62,0.00,40.00,8,6,16,0.00
2013-10-16,59.0,55.4,52.0,57.0,50.3,45.0,95,83,69,0.00,40.00,9,6,16,0.02
2013-10-17,59.0,52.4,45.0,57.0,49.7,45.0,100,91,73,0.00,40.00,9,4,21,1.22
2013-10-18,57.0,47.3,43.0,45.0,39.2,34.0,96,75,46,0.00,40.00,9,7,21,1.02
2013-10-19,51.0,45.6,38.0,44.0,38.6,32.0,93,77,58,0.00,40.00,10,7,25,0.06
2013-10-20,54.0,42.6,35.0,37.0,32.0,-99.9,95,71,45,0.00,40.00,10,7,20,0.06
2013-10-21,63.0,52.3,40.0,34.0,30.7,28.0,75,46,27,0.00,40.00,11,8,20,0.00
2013-10-22,52.0,44.1,34.0,44.0,32.1,23.0,95,65,43,0.00,40.00,9,6,22,0.21
2013-10-23,38.0,35.0,32.0,34.0,28.7,24.0,97,78,61,0.00,40.00,5,3,16,0.02
2013-10-24,39.0,32.5,30.0,32.0,27.9,22.0,97,84,57,0.00,40.00,9,6,19,0.05
2013-10-25,44.0,34.7,30.0,35.0,28.7,22.0,98,81,49,0.00,40.00,8,6,20,0.04
2013-10-26,45.0,36.6,28.0,27.0,23.7,19.0,86,62,36,0.00,40.00,15,10,29,0.04
2013-10-27,40.0,35.9,32.0,35.0,28.1,-99.9,94,77,60,0.00,40.00,9,5,20,0.01
2013-10-28,55.0,45.7,33.0,33.0,26.7,-99.9,75,53,38,0.00,40.00,6,4,12,0.01
2013-10-29,55.0,43.0,34.0,35.0,31.9,29.0,93,67,41,0.00,40.00,6,3,14,0.00
2013-10-30,64.0,49.2,36.0,46.0,36.1,29.0,88,63,38,0.00,40.00,6,4,13,0.00
2013-10-31,61.0,55.2,51.0,58.0,52.2,46.0,99,90,77,0.00,40.00,14,7,23,0.46
2013-11-1,58.0,53.6,45.0,57.0,45.0,36.0,99,75,46,0.00,40.00,15,10,41,0.66
2013-11-2,52.0,44.0,40.0,42.0,38.8,36.0,97,82,66,0.00,40.00,10,5,20,0.10
2013-11-3,42.0,34.2,25.0,37.0,24.4,-99.9,96,72,43,0.00,40.00,7,5,16,0.10
2013-11-4,37.0,28.9,22.0,15.0,12.5,8.0,70,52,32,0.00,40.00,10,7,18,0.01
2013-11-5,48.0,37.2,30.0,33.0,21.4,15.0,80,53,37,0.00,40.00,9,7,15,0.00
2013-11-6,62.0,50.2,37.0,45.0,41.1,33.0,98,73,48,0.00,40.00,11,8,18,0.00
2013-11-7,57.0,42.1,30.0,53.0,37.1,21.0,97,83,63,0.00,40.00,10,7,24,0.67
2013-11-8,34.0,31.7,29.0,32.0,26.3,20.0,95,81,64,0.00,40.00,8,6,20,0.11
2013-11-9,49.0,37.1,28.0,29.0,19.8,-99.9,71,54,28,0.00,40.00,13,7,28,0.01
2013-11-10,47.0,40.4,35.0,34.0,26.7,19.0,83,59,33,0.00,40.00,14,9,29,0.00
2013-11-11,42.0,36.3,30.0,33.0,26.1,19.0,96,69,40,0.00,40.00,12,7,24,0.04
2013-11-12,33.0,25.9,22.0,32.0,18.5,10.0,97,75,45,0.00,40.00,8,6,24,0.18
2013-11-13,34.0,25.6,21.0,21.0,17.2,14.0,89,71,47,0.00,40.00,9,6,22,0.02
2013-11-14,43.0,32.7,24.0,18.0,14.7,12.0,72,50,28,0.00,40.00,11,9,26,0.01
2013-11-15,51.0,45.9,40.0,19.0,14.7,12.0,35,28,22,0.00,40.00,10,8,19,0.01
2013-11-16,57.0,46.6,39.0,41.0,32.7,-99.9,86,62,35,0.00,40.00,9,7,17,0.00
2013-11-17,53.0,48.6,45.0,53.0,48.4,41.0,100,99,86,0.00,40.00,13,9,27,0.95
2013-11-18,53.0,44.0,31.0,53.0,31.1,23.0,100,61,36,0.00,40.00,14,10,28,0.62
2013-11-19,37.0,30.3,23.0,30.0,21.1,17.0,95,68,53,0.00,40.00,9,6,25,0.02
2013-11-20,40.0,28.1,20.0,19.0,13.4,3.0,86,58,27,0.00,40.00,10,7,18,0.01
2013-11-21,39.0,33.2,27.0,32.0,23.8,7.0,83,69,39,0.00,40.00,11,8,18,0.00
2013-11-22,48.0,42.4,33.0,48.0,41.6,31.0,100,97,83,0.00,40.00,8,6,22,0.15
2013-11-23,33.0,24.8,14.0,31.0,17.1,-99.9,91,76,58,0.00,40.00,12,7,26,0.03
2013-11-24,21.0,14.5,9.0,12.0,5.4,-2.0,89,69,39,0.00,40.00,9,7,23,0.01
2013-11-25,31.0,19.4,9.0,10.0,7.3,5.0,87,61,39,0.00,40.00,10,6,19,0.00
2013-11-26,31.0,28.1,26.0,29.0,25.2,9.0,98,90,39,0.00,40.00,10,6,20,0.00
2013-11-27,31.0,25.6,18.0,31.0,-1.6,-99.9,100,76,88,0.00,40.00,4,2,8,0.42
2013-11-28,18.0,12.0,17.0,16.0,-20.4,-99.9,90,62,89,0.00,40.00,4,3,9,0.00
2013-12-1,34.0,32.6,31.0,31.0,30.1,29.0,96,91,85,0.00,40.00,4,2,6,0.03
2013-12-2,37.0,33.7,31.0,34.0,31.7,29.0,98,92,87,0.00,40.00,5,2,7,0.31
2013-12-3,43.0,36.0,32.0,38.0,34.1,32.0,99,93,78,0.00,40.00,6,3,8,0.23
2013-12-4,49.0,39.2,33.0,39.0,35.6,32.0,97,88,68,0.00,40.00,9,6,15,0.01
2013-12-5,56.0,48.7,39.0,56.0,47.5,38.0,100,96,82,0.00,40.00,10,7,18,0.33
2013-12-6,39.0,31.0,26.0,38.0,29.5,25.0,99,95,82,0.00,40.00,6,4,15,0.33
2013-12-7,28.0,22.0,11.0,25.0,15.0,-99.9,95,78,55,0.00,40.00,6,4,14,0.01
2013-12-8,21.0,16.1,10.0,20.0,12.3,5.0,94,85,75,0.00,40.00,12,6,22,0.01
2013-12-9,32.0,27.5,21.0,32.0,6.4,-99.9,99,81,94,0.00,40.00,10,8,19,0.05
2013-12-10,22.0,15.2,16.0,7.0,-13.3,-99.9,64,46,48,0.00,40.00,9,8,23,0.01
2013-12-11,25.0,17.1,12.0,16.0,9.8,4.0,90,73,43,0.00,40.00,11,7,23,0.00
2013-12-12,17.0,13.0,6.0,14.0,3.1,-4.0,90,66,44,0.00,40.00,11,7,25,0.00
2013-12-13,30.0,18.9,13.0,13.0,6.4,-4.0,76,58,43,0.00,40.00,10,6,25,0.00
2013-12-14,23.0,21.0,20.0,22.0,16.4,-99.9,95,86,68,0.00,40.00,14,8,26,0.00
2013-12-15,31.0,23.3,15.0,31.0,22.1,13.0,99,94,88,0.00,40.00,9,6,25,0.00
2013-12-16,22.0,13.6,8.0,14.0,8.3,4.0,90,79,67,0.00,40.00,8,4,23,0.02
2013-12-17,28.0,20.6,14.0,27.0,18.4,8.0,97,91,77,0.00,40.00,8,4,16,0.01
2013-12-18,24.0,21.5,19.0,20.0,18.5,16.0,94,88,81,0.00,40.00,8,6,20,0.00
2013-12-19,45.0,36.3,21.0,31.0,24.2,17.0,86,62,48,0.00,40.00,14,9,30,0.51
2013-12-20,49.0,44.8,40.0,48.0,36.6,23.0,99,75,44,0.00,40.00,15,11,26,0.22
2013-12-21,56.0,51.7,49.0,55.0,49.2,-99.9,100,95,90,0.00,40.00,14,10,26,1.10
2013-12-22,58.0,55.8,52.0,57.0,52.5,45.0,100,89,76,0.00,40.00,17,11,31,0.49
2013-12-23,52.0,36.6,24.0,45.0,33.1,17.0,98,88,74,0.00,40.00,12,6,24,0.07
2013-12-24,24.0,19.3,11.0,20.0,13.0,4.0,87,76,58,0.00,40.00,8,5,21,0.01
2013-12-25,22.0,13.6,5.0,11.0,7.1,2.0,87,76,57,0.00,40.00,9,4,16,0.00
2013-12-26,28.0,22.4,18.0,25.0,17.5,10.0,94,82,64,0.00,40.00,11,6,26,0.00
2013-12-27,33.0,26.4,17.0,23.0,18.4,13.0,85,72,62,0.00,40.00,10,6,21,0.04
2013-12-28,46.0,38.6,33.0,26.0,21.1,-99.9,66,51,43,0.00,40.00,13,9,26,0.06
2013-12-29,42.0,36.7,32.0,36.0,28.3,19.0,100,76,40,0.00,40.00,10,6,24,0.77
2013-12-30,35.0,21.7,14.0,33.0,15.7,5.0,97,78,61,0.00,40.00,8,5,24,0.20
2013-12-31,20.0,15.5,11.0,16.0,10.7,6.0,89,81,71,0.00,40.00,12,6,26,0.01
2014-1-1,25.0,18.5,11.0,20.0,15.0,7.0,93,87,77,0.00,40.00,9,4,17,0.00
2014-1-2,20.0,17.0,6.0,18.0,14.7,2.0,93,91,84,0.00,40.00,9,6,18,0.00